Weather History for Oroville, CA

Change the Weather History Date:

Thursday, December 12, 2013

  Actual Average Record
Temperature  
Mean Temperature 46 °F -  
Max Temperature 61 °F 56 °F 71 °F (1958)
Min Temperature 32 °F 37 °F 25 °F (1985)
Degree Days  
Heating Degree Days 18    
Moisture  
Dew Point 30 °F    
Average Humidity 59    
Maximum Humidity 85    
Minimum Humidity 30    
Precipitation  
Precipitation 0.00 in - - ()
Sea Level Pressure  
Sea Level Pressure 30.25 in    
Wind  
Wind Speed 2 mph (NE)    
Max Wind Speed 7 mph    
Max Gust Speed -    
Visibility 9 miles    
Events      
Averages and records for this station are not official NWS values.
T = Trace of Precipitation, MM = Missing Value Source: NWS Daily Summary

Daily Weather History Graph

Daily Weather History Graph

Search for Another Location

Airport:

Trip Planner

Search our weather history database for the weather conditions in past years. The results will help you decide how hot, cold, wet, or windy it might be!

Date:

Astronomy

Dec. 12, 2013 Rise Set
Actual Time 7:17 AM PST 4:43 PM PST
Civil Twilight 6:47 AM PST 5:13 PM PST
Nautical Twilight 6:13 AM PST 5:46 PM PST
Astronomical Twilight 5:41 AM PST 6:19 PM PST
Moon 1:52 PM PST (12/12) 2:46 AM PST (12/12)
Length of Visible Light 10h 25m
Length of Day
9h 25m
Waxing Gibbous, 81% of the Moon is Illuminated
Dec 12
Waxing Gibbous
Dec 17
Full
Dec 25
Last Quarter
Jan 1
New
Jan 7
First Quarter

Hourly Weather History & Observations

Time (PST) Temp. Windchill Dew Point Humidity Pressure Visibility Wind Dir Wind Speed Gust Speed Precip Events Conditions
12:53 AM 37.9 °F 35.5 °F 28.0 °F 68% 30.27 in 8.0 mi NNE 3.5 mph - N/A   Clear
1:53 AM 36.0 °F - 28.9 °F 76% 30.26 in 9.0 mi Calm Calm - N/A   Clear
2:53 AM 36.0 °F - 28.9 °F 76% 30.27 in 10.0 mi Calm Calm - N/A   Clear
3:53 AM 36.0 °F - 28.9 °F 76% 30.27 in 10.0 mi Calm Calm - N/A   Clear
4:53 AM 32.0 °F 27.5 °F 26.1 °F 79% 30.27 in 8.0 mi East 4.6 mph - N/A   Clear
5:53 AM 32.0 °F - 28.0 °F 85% 30.27 in 9.0 mi Calm Calm - N/A   Clear
6:53 AM 39.0 °F 36.8 °F 28.0 °F 65% 30.28 in 9.0 mi West 3.5 mph - N/A   Clear
7:53 AM 36.0 °F 32.1 °F 28.9 °F 76% 30.29 in 7.0 mi East 4.6 mph - N/A   Clear
8:53 AM 46.0 °F - 33.1 °F 61% 30.30 in 8.0 mi Calm Calm - N/A   Clear
9:53 AM 55.0 °F - 36.0 °F 49% 30.31 in 10.0 mi West 3.5 mph - N/A   Clear
10:53 AM 55.0 °F - 34.0 °F 45% 30.30 in 10.0 mi West 3.5 mph - N/A   Clear
11:53 AM 55.9 °F - 34.0 °F 44% 30.26 in 10.0 mi Calm Calm - N/A   Clear
12:53 PM 52.0 °F - 33.1 °F 49% 30.24 in 10.0 mi WNW 6.9 mph - N/A   Clear
1:53 PM 52.0 °F - 27.0 °F 38% 30.22 in 10.0 mi Variable 3.5 mph - N/A   Clear
2:53 PM 57.0 °F - 28.9 °F 34% 30.19 in 10.0 mi Calm Calm - N/A   Clear
3:53 PM 61.0 °F - 28.9 °F 30% 30.20 in 10.0 mi Calm Calm - N/A   Clear
4:53 PM 50.0 °F - 30.9 °F 48% 30.21 in 10.0 mi Calm Calm - N/A   Clear
5:53 PM 46.9 °F - 28.9 °F 50% 30.21 in 10.0 mi Calm Calm - N/A   Clear
6:53 PM 45.0 °F 43.5 °F 30.9 °F 58% 30.21 in 10.0 mi ESE 3.5 mph - N/A   Clear
7:53 PM 46.9 °F - 30.9 °F 54% 30.23 in 10.0 mi Calm Calm - N/A   Unknown
8:53 PM 43.0 °F 40.3 °F 32.0 °F 65% 30.25 in 9.0 mi NNE 4.6 mph - N/A   Clear
9:53 PM 43.0 °F 41.3 °F 32.0 °F 65% 30.27 in 7.0 mi NE 3.5 mph - N/A   Clear
10:53 PM 41.0 °F 37.1 °F 32.0 °F 70% 30.27 in 10.0 mi East 5.8 mph - N/A   Clear
11:53 PM 42.1 °F - 30.9 °F 65% 30.27 in 10.0 mi Calm Calm - N/A   Clear